Tracking 19574 objects as of 15-Feb-2019
HD Live streaming from Space Station
objects crossing your sky now

COSMOS 1750

Track COSMOS 1750 now!
10-day predictions
COSMOS 1750 is classified as:


NORAD ID: 16760
Int'l Code: 1986-042C
Perigee: 1,414.9 km
Apogee: 1,477.4 km
Inclination: 74.0 °
Period: 114.6 minutes
Semi major axis: 7817 km
RCS: 0.6995 m2 (medium)
Launch date: June 6, 1986
Source: Commonwealth of Independent States (former USSR) (CIS)
Launch site: PLESETSK MISSILE AND SPACE COMPLEX (PKMTR)
aabbcc
Your satellite tracking list
Your tracking list is empty




NASA's NSSDC Master Catalog

Two Line Element Set (TLE):
1 16760U 86042C   19045.66115992 -.00000010 +00000-0 +39845-4 0  9993
2 16760 074.0161 101.9675 0039987 329.2528 205.3003 12.56118906499135
Source of the keplerian elements: AFSPC